KLM27J EHAM-EGBB

Flight info

Callsign KLM27J
Flight time N/A
Altitude 30000
Route IDRID L980 LAM L610 HEMEL
Aircraft E190/M-SDE3GILORVW/S

Departure

Time 2026-04-18 06:45
Airport Amsterdam Airport Schiphol (EHAM)

Arrival

Time N/A
Airport Birmingham Airport (EGBB)
Time Latitude Longitude Altitude Speed Heading
2026-04-18 06:17 52.30195 4.75650 -2 ft 0 kts 238°
2026-04-18 06:35 52.30201 4.75666 -2 ft 4 kts 240°
2026-04-18 06:35 52.30211 4.75698 -2 ft 4 kts 193°
2026-04-18 06:36 52.30228 4.75695 -2 ft 2 kts 155°
2026-04-18 06:36 52.30230 4.75694 -2 ft 2 kts 156°
2026-04-18 06:39 52.30221 4.75700 -2 ft 3 kts 156°
2026-04-18 06:39 52.30185 4.75737 -2 ft 8 kts 144°
2026-04-18 06:39 52.30159 4.75767 -2 ft 0 kts 147°
2026-04-18 06:40 52.30144 4.75783 -2 ft 6 kts 147°
2026-04-18 06:40 52.30101 4.75819 -2 ft 8 kts 154°
2026-04-18 06:40 52.30051 4.75881 -2 ft 10 kts 123°
2026-04-18 06:41 52.30008 4.75993 -2 ft 12 kts 111°
2026-04-18 06:41 52.30044 4.76127 -2 ft 14 kts 58°
2026-04-18 06:41 52.30101 4.76275 -2 ft 17 kts 57°
2026-04-18 06:41 52.30166 4.76446 -2 ft 19 kts 58°
2026-04-18 06:42 52.30241 4.76638 -2 ft 21 kts 57°
2026-04-18 06:42 52.30322 4.76846 -2 ft 23 kts 58°
2026-04-18 06:42 52.30410 4.77073 -3 ft 23 kts 58°
2026-04-18 06:42 52.30462 4.77215 -2 ft 14 kts 57°
2026-04-18 06:43 52.30511 4.77353 -2 ft 10 kts 82°
2026-04-18 06:43 52.30456 4.77415 -3 ft 12 kts 171°
2026-04-18 06:43 52.30373 4.77369 -4 ft 14 kts 203°
2026-04-18 06:43 52.30280 4.77282 -5 ft 17 kts 232°
2026-04-18 06:44 52.30203 4.77084 -4 ft 27 kts 238°
2026-04-18 06:44 52.30033 4.76642 -4 ft 77 kts 238°
2026-04-18 06:44 52.29632 4.75593 0 ft 139 kts 238°
2026-04-18 06:44 52.29064 4.74113 421 ft 160 kts 237°
2026-04-18 06:45 52.28444 4.72579 1293 ft 171 kts 236°
2026-04-18 06:45 52.27728 4.70920 2021 ft 183 kts 238°
2026-04-18 06:45 52.26959 4.69199 2629 ft 194 kts 230°
2026-04-18 06:45 52.25997 4.67558 3238 ft 208 kts 227°
2026-04-18 06:46 52.24926 4.65853 3772 ft 229 kts 229°
2026-04-18 06:46 52.24058 4.63546 4287 ft 246 kts 249°
2026-04-18 06:46 52.23479 4.60885 5172 ft 250 kts 251°
2026-04-18 06:46 52.22913 4.58195 6055 ft 252 kts 251°
2026-04-18 06:47 52.22356 4.55450 6844 ft 257 kts 252°
2026-04-18 06:47 52.21797 4.52675 7598 ft 259 kts 251°
2026-04-18 06:47 52.21211 4.49893 8325 ft 262 kts 251°
2026-04-18 06:47 52.20611 4.47060 9057 ft 265 kts 250°
2026-04-18 06:48 52.20008 4.44206 9805 ft 268 kts 250°
2026-04-18 06:48 52.19390 4.41276 10448 ft 276 kts 250°
2026-04-18 06:48 52.18740 4.38206 10595 ft 300 kts 250°
2026-04-18 06:48 52.18042 4.34911 10768 ft 319 kts 250°
2026-04-18 06:49 52.17308 4.31438 11432 ft 320 kts 250°
2026-04-18 06:49 52.16582 4.28018 12177 ft 319 kts 250°
2026-04-18 06:49 52.15853 4.24586 12808 ft 323 kts 250°
2026-04-18 06:49 52.15124 4.21150 13441 ft 325 kts 250°
2026-04-18 06:50 52.14381 4.17664 14074 ft 328 kts 250°
2026-04-18 06:50 52.13627 4.14135 14655 ft 330 kts 250°
2026-04-18 06:50 52.12869 4.10595 15215 ft 332 kts 250°
2026-04-18 06:50 52.12097 4.06999 15267 ft 336 kts 250°
2026-04-18 06:51 52.11338 4.03456 15750 ft 330 kts 250°
2026-04-18 06:51 52.10577 3.99918 16305 ft 334 kts 250°
2026-04-18 06:51 52.09800 3.96312 16796 ft 339 kts 250°
2026-04-18 06:51 52.09016 3.92681 17375 ft 341 kts 250°
2026-04-18 06:52 52.08228 3.89034 17997 ft 343 kts 250°
2026-04-18 06:52 52.07432 3.85361 18612 ft 345 kts 250°
2026-04-18 06:52 52.06634 3.81680 19175 ft 346 kts 249°
2026-04-18 06:52 52.05830 3.77994 19754 ft 347 kts 249°
2026-04-18 06:53 52.05023 3.74282 20322 ft 349 kts 249°
2026-04-18 06:53 52.04209 3.70558 20867 ft 351 kts 249°
2026-04-18 06:53 52.03391 3.66816 21391 ft 353 kts 249°
2026-04-18 06:53 52.02566 3.63048 21894 ft 355 kts 249°
2026-04-18 06:54 52.01738 3.59264 22387 ft 356 kts 249°
2026-04-18 06:54 52.00937 3.55444 22851 ft 359 kts 251°
2026-04-18 06:54 52.00292 3.51510 23315 ft 362 kts 253°
2026-04-18 06:54 51.99692 3.47540 23783 ft 363 kts 253°
2026-04-18 06:55 51.99068 3.43560 24211 ft 365 kts 252°
2026-04-18 06:55 51.98424 3.39576 24663 ft 366 kts 252°
2026-04-18 06:55 51.97768 3.35580 25112 ft 367 kts 252°
2026-04-18 06:55 51.97322 3.32885 25403 ft 367 kts 252°
2026-04-18 06:56 51.96657 3.28879 25823 ft 368 kts 252°
2026-04-18 06:56 51.95773 3.23562 26327 ft 370 kts 252°
2026-04-18 06:56 51.95319 3.20838 26558 ft 371 kts 252°
2026-04-18 06:56 51.94646 3.16807 26906 ft 371 kts 252°
2026-04-18 06:57 51.93969 3.12761 27259 ft 372 kts 252°
2026-04-18 06:57 51.92606 3.04641 27907 ft 374 kts 252°
2026-04-18 06:57 51.91920 3.00568 28246 ft 375 kts 252°
2026-04-18 06:58 51.91234 2.96499 28600 ft 376 kts 252°
2026-04-18 06:58 51.90542 2.92411 28904 ft 377 kts 252°
2026-04-18 06:58 51.89845 2.88304 29202 ft 378 kts 252°
2026-04-18 06:58 51.89153 2.84230 29638 ft 374 kts 252°
2026-04-18 06:59 51.88465 2.80182 30099 ft 371 kts 252°
2026-04-18 06:59 51.87781 2.76172 30287 ft 373 kts 252°
2026-04-18 06:59 51.86369 2.67938 30217 ft 385 kts 252°
2026-04-18 07:00 51.84933 2.59573 30202 ft 387 kts 252°
2026-04-18 07:00 51.83488 2.51200 30200 ft 386 kts 252°
2026-04-18 07:01 51.82039 2.42849 30205 ft 386 kts 251°
2026-04-18 07:01 51.80583 2.34498 30202 ft 385 kts 251°
2026-04-18 07:02 51.79126 2.26181 30202 ft 384 kts 251°
2026-04-18 07:02 51.78215 2.17658 30206 ft 388 kts 260°
2026-04-18 07:03 51.77643 2.09008 30199 ft 387 kts 260°
2026-04-18 07:03 51.77111 2.00294 30203 ft 388 kts 260°
2026-04-18 07:04 51.76598 1.91631 30207 ft 388 kts 260°
2026-04-18 07:04 51.76078 1.82958 30254 ft 388 kts 260°
2026-04-18 07:05 51.75552 1.74304 30209 ft 387 kts 260°
2026-04-18 07:05 51.75020 1.65653 30212 ft 388 kts 260°
2026-04-18 07:06 51.74479 1.57002 30206 ft 388 kts 260°
2026-04-18 07:06 51.73929 1.48343 30216 ft 388 kts 260°
2026-04-18 07:07 51.73372 1.39681 30207 ft 388 kts 260°
2026-04-18 07:07 51.72806 1.31018 30211 ft 388 kts 260°
2026-04-18 07:08 51.72242 1.22359 30217 ft 388 kts 260°
2026-04-18 07:08 51.71664 1.13691 30220 ft 389 kts 260°
2026-04-18 07:09 51.71077 1.05031 30217 ft 389 kts 260°
2026-04-18 07:09 51.70483 0.96366 30215 ft 389 kts 260°
2026-04-18 07:10 51.69884 0.87699 30214 ft 389 kts 260°
2026-04-18 07:10 51.69276 0.79024 30214 ft 390 kts 260°
2026-04-18 07:11 51.68662 0.70342 30214 ft 390 kts 260°
2026-04-18 07:11 51.68041 0.61648 30213 ft 390 kts 260°
2026-04-18 07:12 51.67409 0.52894 30215 ft 391 kts 260°
2026-04-18 07:12 51.66773 0.44189 30214 ft 391 kts 260°
2026-04-18 07:13 51.66127 0.35486 30217 ft 392 kts 260°
2026-04-18 07:13 51.65474 0.26773 30174 ft 390 kts 260°
2026-04-18 07:14 51.65153 0.22504 29863 ft 379 kts 260°
2026-04-18 07:14 51.64904 0.18303 29539 ft 379 kts 266°
2026-04-18 07:14 51.65257 0.14036 28922 ft 390 kts 281°
2026-04-18 07:14 51.66203 0.10082 28408 ft 393 kts 287°
2026-04-18 07:15 51.67285 0.06057 27890 ft 389 kts 288°
2026-04-18 07:15 51.68375 0.02085 27379 ft 387 kts 288°
2026-04-18 07:15 51.69478 -0.01853 26818 ft 384 kts 288°
2026-04-18 07:15 51.70576 -0.05740 26731 ft 379 kts 288°
2026-04-18 07:16 51.71675 -0.09665 26109 ft 385 kts 288°
2026-04-18 07:16 51.72774 -0.13553 25624 ft 380 kts 288°
2026-04-18 07:16 51.73858 -0.17421 25117 ft 376 kts 288°